Tracking 23757 objects as of 26-Oct-2021
HD Live streaming from Space Station
objects crossing your sky now

SL-14 DEB

Track SL-14 DEB now!
10-day predictions


NORAD ID: 45323
Int'l Code: 1991-056BM
Perigee: 1,190.6 km
Apogee: 1,205.4 km
Inclination: 82.5 °
Period: 109.2 minutes
Semi major axis: 7568 km
RCS: Unknown
Launch date: August 15, 1991
Source: Commonwealth of Independent States (former USSR) (CIS)
Launch site: PLESETSK MISSILE AND SPACE COMPLEX (PKMTR)

Note: This is SATELLITE DEBRIS
aabbcc
Your satellite tracking list
Your tracking list is empty




NASA's NSSDC Master Catalog

Two Line Element Set (TLE):
1 45323U 91056BM  21298.18905763  .00000558  00000-0  13884-2 0  9993
2 45323  82.5300 254.8380 0009806  37.2050 322.9751 13.18399939 79715
Source of the keplerian elements: AFSPC